Weather Roundup
Issued by NWS

Home | Current Version | Previous Version | Graphics & Text | Print | Product List | Glossary Off
Versions: 1 2 3 4 5 6 7 8 9 10 11 12 13 14 15 16 17 18 19 20 21 22 23 24 25 26 27 28 29 30 31 32 33 34 35 36 37 38 39 40 41 42 43 44 45 46 47 48 49 50

000
NZUS93 KARX 021559
HRRWXR

CURRENT HOURLY OBSERVATIONS ACROSS
MUCH OF THE UPPER MISSISSIPPI VALLEY
NATIONAL WEATHER SERVICE LA CROSSE WI
1100 AM CDT WED SEP 02 2015


...SOUTHEAST MINNESOTA...


CITY           SKY/WX    TMP DP  RH WIND       PRES   REMARKS
ROCHESTER      SUNNY     77  68  73 S14       29.96S
ROCHESTER/MAYO FAIR      77  67  72 SE12G17   29.95S
WINONA         MOSUNNY   79  70  73 SW3       29.96F
AUSTIN         SUNNY     79  68  69 S13G18    29.95S
ALBERT LEA     SUNNY     79  66  65 S9G17     29.92F
DODGE CENTER   SUNNY     75  68  78 S15       29.95S
PRESTON        MOSUNNY   76  66  70 S12G17    29.98S
OWATONNA       SUNNY     79  68  69 S8        29.92F
FARIBAULT      SUNNY     79  70  73 S8        29.91F
$$

...ELSEWHERE IN MINNESOTA...


CITY           SKY/WX    TMP DP  RH WIND       PRES   REMARKS
MINNEAPOLIS    CLOUDY    72  66  81 SE12      29.92S
INTNL FALLS    SUNNY     77  69  76 VRB5      29.95R
DULUTH         LGT RAIN  66  64  93 NE13      30.02R FOG
RED WING       MOSUNNY   72  66  83 E10       29.93F
REDWOOD FALLS  MOSUNNY   79  71  76 S8        29.86S
MANKATO        SUNNY     79  70  73 S13       29.89S
WORTHINGTON    SUNNY     77  68  73 S15       29.89S
FAIRMONT       SUNNY     79  64  61 SW16      29.89S
$$

...SOUTHWEST WISCONSIN...


CITY           SKY/WX    TMP DP  RH WIND       PRES   REMARKS
LA CROSSE      MOSUNNY   79  69  71 S10       29.96S
PRAIRIE DU CHI CLOUDY    77  67  70 SW7       29.99S
BOSCOBEL       CLOUDY    82  69  64 SW8       29.99F
LONE ROCK      NOT AVBL
PLATTEVILLE    PTSUNNY   79  72  80 SW10      30.02S
FORT MC COY    MOSUNNY   80  66  62 SW3       29.98F
VIROQUA          N/A     76  69  78 SW5       30.01S
WIS DELLS      SUNNY     83  65  54 SW9       30.00S
$$

...ELSEWHERE IN WISCONSIN...


CITY           SKY/WX    TMP DP  RH WIND       PRES   REMARKS
MILWAUKEE      MOSUNNY   84  70  62 SW6       30.02F
MADISON        PTSUNNY   83  68  60 SW8       30.00F
GREEN BAY      MOSUNNY   84  74  71 W6        29.98S HX  91
EAU CLAIRE     LGT RAIN  69  67  93 N7        29.97S FOG
BLACK RVR FLS  FAIR      80  69  69 S3        29.97S
MEDFORD        DRIZZLE   71  66  85 NE5       30.02S
WAUSAU         PTSUNNY   79  70  74 NW6       29.98S
WIS RAPIDS     MOSUNNY   83  69  62 W8        30.01S
MARSHFIELD     PTSUNNY   81  68  64 NW7       30.00S
RICE LAKE      CLOUDY    68  65  92 SE10      30.01R
$$

...NORTHEAST IOWA...


CITY           SKY/WX    TMP DP  RH WIND       PRES   REMARKS
DECORAH        MOSUNNY   75  70  83 S5        29.98F
MASON CITY     SUNNY     80  69  69 SW17G25   29.94F
CHARLES CITY   SUNNY     77  70  78 S15G22    29.97S
OELWEIN        PTSUNNY   73  70  88 S12       30.00F
$$

...ELSEWHERE IN IOWA...


CITY           SKY/WX    TMP DP  RH WIND       PRES   REMARKS
DES MOINES     MOSUNNY   80  68  66 S17G30    29.96F
IOWA CITY      CLOUDY    76  69  79 CALM      30.04R
FORT DODGE     SUNNY     79  68  69 S23G29    29.95S
$$

...NORTHERN ILLINOIS...


CITY           SKY/WX    TMP DP  RH WIND       PRES   REMARKS
CHICAGO-OHARE  MOSUNNY   84  70  62 W6        30.05F
CHICAGO-MIDWAY MOSUNNY   85  70  60 VRB3      30.05F
MOLINE         PTSUNNY   83  70  64 S8        30.02F
ROCKFORD       PTSUNNY   84  70  62 SW9       30.04F
PEORIA         PTSUNNY   84  71  65 SW7       30.07F
$$

NOTE: "FAIR" INDICATES FEW OR NO CLOUDS BELOW 12,000 FEET WITH NO
SIGNIFICANT WEATHER AND/OR OBSTRUCTIONS TO VISIBILITY. WIND
SPEEDS ARE IN MILES-PER-HOUR.



USA.gov is the U.S. government's official web portal to all federal, state and local government web resources and services.